Tracking 20083 objects as of 9-Dec-2019
HD Live streaming from Space Station
objects crossing your sky now

FENGYUN 1C DEB

Track FENGYUN 1C DEB now!
10-day predictions


NORAD ID: 30857
Int'l Code: 1999-025AWT
Perigee: 814.4 km
Apogee: 928.5 km
Inclination: 98.9 °
Period: 102.2 minutes
Semi major axis: 7242 km
RCS: 0.0138 m2 (small)
Launch date: May 10, 1999
Source: People's Republic of China (PRC)
Launch site: Taiyaun Space Center, China (TSC)

Note: This is SATELLITE DEBRIS
aabbcc
Your satellite tracking list
Your tracking list is empty




NASA's NSSDC Master Catalog

Two Line Element Set (TLE):
1 30857U 99025AWT 19342.78371047 +.00001639 +00000-0 +95192-3 0  9992
2 30857 098.9358 277.3387 0078739 081.3065 279.7014 14.08552892655764
Source of the keplerian elements: AFSPC